GW4284 Weather Reports


time (UTC)temp
F
wind
direction
speed
knots
gust
knots
rain 1hr
in
rain 24hr
in
rain mn
in
humidity
%
barometer
mb
20260505140259 51 317 0.0 0.0 0.00 0.01 0.01 99 997.3
20260505130223 51 330 0.0 0.0 0.07 0.01 0.01 99 996.8
20260505124713 51 317 0.0 0.0 0.00 0.00 0.00 99 996.8
20260505124210 51 317 0.0 0.0 0.00 0.00 0.00 99 996.8
20260505123705 51 317 0.0 0.0 0.00 0.00 0.00 99 996.8
20260505123202 51 309 0.0 0.0 0.00 0.00 0.00 99 996.8
20260505122659 51 309 0.0 0.0 0.00 0.00 0.00 99 996.7
20260505122156 51 308 0.0 0.0 0.00 0.00 0.00 99 997.1
20260505121652 51 317 0.0 0.0 0.00 0.00 0.00 99 996.7
20260505121148 51 317 0.0 0.0 0.00 0.00 0.00 99 996.8
20260505120645 51 306 0.0 0.0 0.00 0.00 0.00 99 996.7
20260505120141 51 317 0.0 0.0 0.00 0.00 0.00 99 996.9
20260505115635 51 301 0.0 0.0 0.00 0.00 0.00 99 996.8
20260505115133 51 285 0.0 0.0 0.00 0.00 0.00 99 996.7
20260505114630 51 285 0.0 0.0 0.00 0.00 0.00 99 996.5
20260505114126 51 285 0.0 0.0 0.00 0.00 0.00 99 996.7
20260505113623 52 285 0.0 0.0 0.00 0.00 0.00 99 996.6
20260505113120 52 285 0.0 0.0 0.00 0.00 0.00 99 996.8
20260505112616 51 285 0.0 0.0 0.00 0.00 0.00 99 996.9
20260505112114 52 285 0.0 0.0 0.00 0.00 0.00 99 996.6
20260505111608 52 285 0.0 0.0 0.00 0.00 0.00 99 996.6
20260505111104 52 285 0.0 0.0 0.00 0.00 0.00 98 996.4
20260505110600 51 285 0.0 0.0 0.00 0.00 0.00 98 996.7
20260505102033 51 285 0.0 0.0 0.00 0.00 0.00 99 996.1
20260505101532 51 285 0.0 0.0 0.00 0.00 0.00 99 996.1
20260505101028 51 296 0.0 0.0 0.00 0.00 0.00 99 996.2
20260505100525 51 295 0.0 0.0 0.00 0.00 0.00 99 996.4
20260505100022 51 317 0.0 0.0 0.00 0.00 0.00 99 996.2
20260505095518 51 344 0.0 0.0 0.00 0.00 0.00 99 996.3
20260505095014 51 345 0.0 0.0 0.00 0.00 0.00 99 996.2
20260505094511 51 309 0.0 0.0 0.00 0.00 0.00 99 996.2
20260505094007 51 327 0.0 0.0 0.00 0.00 0.00 99 996.2
20260505093503 51 337 0.0 0.0 0.00 0.00 0.00 99 996.0
20260505093001 51 338 0.0 0.0 0.00 0.00 0.00 99 995.8
20260505092458 51 317 0.0 0.0 0.00 0.00 0.00 99 995.9
20260505091956 51 332 0.0 0.0 0.00 0.00 0.00 99 995.9
20260505091453 51 317 0.0 0.0 0.00 0.00 0.00 99 995.7
20260505090951 51 317 0.0 0.0 0.00 0.00 0.00 99 995.8
20260505090449 51 217 0.0 0.0 0.00 0.00 0.00 99 995.8
20260505085946 51 217 0.0 0.0 0.00 0.00 0.00 99 995.7
20260505085444 50 172 0.9 0.9 0.00 0.00 0.00 99 995.9
20260505084942 50 295 0.0 0.0 0.00 0.00 0.00 99 995.5
20260505084440 50 295 0.0 0.0 0.00 0.00 0.00 99 995.6
20260505083938 50 295 0.0 0.0 0.00 0.00 0.00 99 995.7
20260505083435 49 295 0.9 0.9 0.00 0.00 0.00 99 995.6
20260505082931 49 295 0.0 0.9 0.00 0.00 0.00 99 995.7
20260505082427 49 295 0.0 0.0 0.00 0.00 0.00 99 995.6
20260505081924 49 295 0.0 0.0 0.00 0.00 0.00 99 995.4
20260505081421 49 295 0.0 0.0 0.00 0.00 0.00 99 995.4
20260505080917 50 295 0.0 0.0 0.00 0.00 0.00 99 995.2
20260505080413 50 295 0.0 0.0 0.00 0.00 0.00 99 995.2
20260505075909 50 295 0.0 0.9 0.00 0.00 0.00 99 995.3
20260505075406 50 295 0.0 0.0 0.00 0.00 0.00 99 995.5
20260505074903 49 317 0.0 0.0 0.00 0.00 0.00 98 995.2
20260505074400 49 316 0.0 0.0 0.00 0.00 0.00 98 995.1
20260505073857 50 257 0.9 0.9 0.00 0.00 0.00 98 995.1
20260505073355 50 197 0.0 0.0 0.00 0.00 0.00 98 995.0
20260505072852 50 196 0.0 0.0 0.00 0.00 0.00 97 994.9
20260505072348 50 190 0.0 0.9 0.00 0.00 0.00 97 994.8
20260505071845 50 181 0.0 0.0 0.00 0.00 0.00 97 994.7
20260505071341 50 202 0.0 0.0 0.00 0.00 0.00 97 994.9
20260505070839 51 212 0.0 0.0 0.00 0.00 0.00 96 994.8
20260505070335 51 209 0.0 0.0 0.00 0.00 0.00 96 994.8
20260505065831 51 208 0.0 0.0 0.00 0.00 0.00 96 994.8
20260505065328 51 168 0.9 0.9 0.00 0.00 0.00 96 994.4
20260505064825 51 190 0.0 0.9 0.00 0.00 0.00 95 994.5
20260505064321 52 200 0.9 0.9 0.00 0.00 0.00 94 994.6
20260505063820 52 172 0.9 0.9 0.00 0.00 0.00 94 994.4
20260505063315 52 174 0.9 0.9 0.00 0.00 0.00 94 994.5
20260505062812 53 204 0.0 0.9 0.00 0.00 0.00 93 994.3
20260505062310 53 163 0.9 0.9 0.00 0.00 0.00 93 994.2
20260505061806 53 160 1.7 1.7 0.00 0.00 0.00 92 994.2
20260505061305 53 182 1.7 2.6 0.00 0.00 0.00 92 994.2
20260505060802 54 191 0.9 0.9 0.00 0.00 0.00 91 994.0
20260505060259 54 167 1.7 1.7 0.00 0.00 0.00 90 993.9
20260505055754 54 174 2.6 2.6 0.00 0.00 0.00 90 994.0
20260505055250 55 173 0.9 1.7 0.00 0.00 0.00 89 994.0
20260505054748 55 176 0.0 0.0 0.00 0.00 0.00 89 993.9
20260505054245 55 171 0.9 0.9 0.00 0.00 0.00 88 993.8
20260505053744 55 149 0.9 0.9 0.00 0.00 0.00 88 993.9
20260505053240 55 213 0.9 0.9 0.00 0.00 0.00 87 993.8
20260505052737 56 73 0.0 0.0 0.00 0.00 0.00 88 993.9
20260505052234 56 298 0.9 0.9 0.00 0.00 0.00 87 993.9
20260505051731 56 299 0.0 0.9 0.00 0.00 0.00 87 993.9
20260505051229 56 301 0.9 0.9 0.00 0.00 0.00 87 993.8
20260505050727 57 302 0.0 0.9 0.00 0.00 0.00 86 993.6
20260505050225 57 307 1.7 1.7 0.00 0.00 0.00 85 993.5
20260505041654 59 311 1.7 1.7 0.00 0.00 0.00 82 993.3
20260505041152 60 288 1.7 1.7 0.00 0.00 0.00 80 993.0
20260505040649 60 316 3.5 4.3 0.00 0.00 0.00 80 993.2
20260505040146 61 308 4.3 5.2 0.00 0.00 0.00 78 993.2
20260505035642 61 312 2.6 4.3 0.00 0.00 0.00 79 993.0
20260505035139 61 320 5.2 6.1 0.00 0.00 0.00 78 993.0
20260505034635 61 277 4.3 6.1 0.00 0.00 0.00 78 993.1
20260505034132 62 304 2.6 2.6 0.00 0.00 0.00 77 992.7
20260505033628 62 330 2.6 2.6 0.00 0.00 0.00 76 992.8
20260505033127 63 197 0.9 0.9 0.00 0.00 0.00 75 992.7
20260505032625 63 264 2.6 2.6 0.00 0.00 0.00 73 992.8
20260505032121 63 312 4.3 6.1 0.00 0.00 0.00 72 992.5
20260505031618 64 308 4.3 6.1 0.00 0.00 0.00 72 992.5
20260505031114 64 309 4.3 5.2 0.00 0.00 0.00 70 992.6
20260505030612 65 320 6.1 6.1 0.00 0.00 0.00 69 992.5
20260505030107 65 271 3.5 5.2 0.00 0.00 0.00 70 992.4
20260505025603 65 83 0.9 1.7 0.00 0.00 0.00 68 992.5
20260505025102 66 299 4.3 6.1 0.00 0.00 0.00 66 992.3
20260505024559 66 289 4.3 6.1 0.00 0.00 0.00 66 992.1
20260505024056 67 327 2.6 4.3 0.00 0.00 0.00 66 992.2
20260505023553 67 327 2.6 2.6 0.00 0.00 0.00 63 992.0
20260505023051 67 277 5.2 7.0 0.00 0.00 0.00 63 992.2
20260505022548 68 280 4.3 6.1 0.00 0.00 0.00 64 992.1
20260505022045 68 347 0.9 1.7 0.00 0.00 0.00 65 992.2
20260505021541 69 253 2.6 4.3 0.00 0.00 0.00 64 992.1
20260505021033 69 330 3.5 4.3 0.00 0.00 0.00 67 992.1
20260505020533 69 295 0.9 1.7 0.00 0.00 0.00 67 992.4
20260505020030 69 14 0.9 1.7 0.00 0.00 0.00 67 992.0
20260505015527 70 87 0.9 0.9 0.00 0.00 0.00 68 992.0
20260505015024 70 208 1.7 2.6 0.00 0.00 0.00 68 992.1
20260505014520 70 334 2.6 2.6 0.00 0.00 0.00 70 991.9
20260505014018 70 345 1.7 1.7 0.00 0.00 0.00 69 991.9
20260505013515 71 283 0.9 0.9 0.00 0.00 0.00 68 991.9
20260505013012 71 286 3.5 4.3 0.00 0.00 0.00 65 992.0
20260505012510 71 301 0.9 0.9 0.00 0.00 0.00 66 992.1
20260505012007 71 246 2.6 2.6 0.00 0.00 0.00 65 992.1
20260505011503 72 203 0.0 0.9 0.00 0.00 0.00 65 992.3
20260505011000 72 319 0.9 1.7 0.00 0.00 0.00 63 992.0
20260505010455 72 308 0.9 0.9 0.00 0.00 0.00 64 992.0
20260505005951 73 312 0.0 0.9 0.00 0.00 0.00 65 992.3
20260505005448 72 183 1.7 1.7 0.00 0.00 0.00 67 992.3
20260505004946 72 253 4.3 6.1 0.00 0.00 0.00 63 992.2
20260505004443 72 210 0.9 1.7 0.00 0.00 0.00 65 992.2
20260505003940 72 218 0.0 0.9 0.00 0.00 0.00 64 992.4
20260505003437 73 240 1.7 1.7 0.00 0.00 0.00 66 992.6
20260505002933 73 297 3.5 5.2 0.00 0.00 0.00 65 992.6
20260505002429 74 173 0.9 0.9 0.00 0.00 0.00 65 992.5
20260505001928 73 241 0.0 0.9 0.00 0.00 0.00 64 992.4
20260505001425 73 3 1.7 1.7 0.00 0.00 0.00 67 992.4
20260505000922 73 292 0.9 0.9 0.00 0.00 0.00 64 992.5
20260505000420 73 298 0.9 1.7 0.00 0.00 0.00 63 992.6
20260504235916 73 175 2.6 4.3 0.00 0.00 0.00 64 992.4
20260504235414 74 249 1.7 1.7 0.00 0.00 0.00 63 992.7
20260504234910 73 272 2.6 2.6 0.00 0.00 0.00 63 992.7
20260504234407 73 311 1.7 4.3 0.00 0.00 0.00 65 992.4
20260504233904 73 172 1.7 1.7 0.00 0.00 0.00 63 992.6
20260504233359 73 199 1.7 2.6 0.00 0.00 0.00 65 992.6
20260504232856 73 232 1.7 1.7 0.00 0.00 0.00 63 992.6
20260504232353 73 176 0.9 1.7 0.00 0.00 0.00 63 992.7
20260504231850 73 213 2.6 2.6 0.00 0.00 0.00 65 992.6
20260504231347 73 303 0.9 0.9 0.00 0.00 0.00 68 992.6
20260504230843 74 268 1.7 1.7 0.00 0.00 0.00 63 992.9
20260504230341 73 193 0.9 0.9 0.00 0.00 0.00 67 992.7
20260504225839 72 242 2.6 2.6 0.00 0.00 0.00 68 992.8
20260504225335 72 132 2.6 2.6 0.00 0.00 0.00 64 992.9
20260504224833 71 189 1.7 1.7 0.00 0.00 0.00 65 992.8
20260504224330 71 160 4.3 5.2 0.00 0.00 0.00 67 993.2
20260504223826 72 174 4.3 6.1 0.00 0.00 0.00 66 993.0
20260504223322 72 231 2.6 4.3 0.00 0.00 0.00 64 993.3
20260504222819 72 252 0.9 1.7 0.00 0.00 0.00 64 993.3
20260504222316 71 162 4.3 5.2 0.00 0.00 0.00 66 993.3
20260504221814 70 145 4.3 5.2 0.00 0.00 0.00 66 993.3
20260504221310 72 183 5.2 7.8 0.00 0.00 0.00 65 993.5
20260504220807 72 242 0.9 1.7 0.00 0.00 0.00 66 993.6
20260504220304 71 75 0.0 0.9 0.00 0.00 0.00 68 993.4
20260504215802 70 233 2.6 4.3 0.00 0.00 0.00 69 993.3
20260504215258 70 207 4.3 5.2 0.00 0.00 0.00 67 993.7
20260504214754 71 217 2.6 2.6 0.00 0.00 0.00 66 993.7
20260504214250 70 148 3.5 4.3 0.00 0.00 0.00 65 993.8
20260504213747 70 165 3.5 4.3 0.00 0.00 0.00 66 993.9
20260504213243 70 162 2.6 2.6 0.00 0.00 0.00 66 993.7
20260504212741 69 209 1.7 1.7 0.00 0.00 0.00 71 993.7
20260504212237 69 163 0.9 1.7 0.00 0.00 0.00 68 994.0
20260504211735 69 19 2.6 2.6 0.00 0.00 0.00 69 994.0
20260504211230 69 113 3.5 4.3 0.00 0.00 0.00 68 993.9
20260504210728 68 293 0.9 0.9 0.00 0.00 0.00 71 994.0
20260504210225 68 324 2.6 2.6 0.00 0.00 0.00 67 994.2
20260504205722 67 136 1.7 1.7 0.00 0.00 0.00 70 994.1
20260504205220 68 173 4.3 7.0 0.00 0.00 0.00 68 994.4
20260504204718 68 284 0.9 0.9 0.00 0.00 0.00 68 994.4
20260504204216 68 141 0.9 2.6 0.00 0.00 0.00 72 994.4
20260504203715 67 177 0.9 1.7 0.00 0.00 0.00 71 994.4
20260504203207 66 211 1.7 1.7 0.00 0.00 0.00 71 994.5
20260504202706 66 122 2.6 4.3 0.00 0.00 0.00 71 994.6
20260504202204 66 183 4.3 6.1 0.00 0.00 0.00 74 994.6
20260504201701 67 216 2.6 2.6 0.00 0.00 0.00 70 994.7
20260504201158 67 328 0.0 0.9 0.00 0.00 0.00 72 994.6
20260504200655 66 193 4.3 5.2 0.00 0.00 0.00 73 994.8
20260504200152 66 172 0.0 0.9 0.00 0.00 0.00 73 994.8
20260504195648 64 166 2.6 2.6 0.00 0.00 0.00 76 994.9
20260504195144 65 166 7.0 7.8 0.00 0.00 0.00 72 994.8
20260504194641 64 135 3.5 5.2 0.00 0.00 0.00 75 995.0
20260504194137 64 160 5.2 6.1 0.00 0.00 0.00 74 994.7
20260504193633 64 146 3.5 5.2 0.00 0.00 0.00 75 994.9
20260504193132 64 162 2.6 4.3 0.00 0.00 0.00 75 995.0
20260504192629 64 224 0.0 0.9 0.00 0.00 0.00 77 995.0
20260504192127 65 105 1.7 2.6 0.00 0.00 0.00 77 994.8
20260504191625 64 313 1.7 1.7 0.00 0.00 0.00 78 995.0
20260504191121 64 137 2.6 4.3 0.00 0.00 0.00 75 995.1
20260504190617 64 211 1.7 1.7 0.00 0.00 0.00 73 995.1
20260504190114 64 95 0.9 0.9 0.00 0.00 0.00 75 995.3
20260504185611 63 130 0.9 0.9 0.00 0.00 0.00 75 995.3
20260504185107 63 55 0.9 1.7 0.00 0.00 0.00 77 995.3
20260504184603 63 106 2.6 5.2 0.00 0.00 0.00 78 995.3
20260504184058 62 159 2.6 2.6 0.00 0.00 0.00 79 995.3
20260504183556 62 141 0.9 0.9 0.00 0.00 0.00 77 995.4
20260504183054 62 236 1.7 1.7 0.00 0.00 0.00 80 995.2
20260504182550 63 189 5.2 5.2 0.00 0.00 0.00 76 995.2
20260504182048 63 238 3.5 4.3 0.00 0.00 0.00 75 995.4
20260504181545 62 196 1.7 2.6 0.00 0.00 0.00 79 995.4
20260504181043 61 157 4.3 4.3 0.00 0.00 0.00 78 995.2
20260504180542 61 167 2.6 5.2 0.00 0.00 0.00 77 995.4
20260504180040 62 161 3.5 5.2 0.00 0.00 0.00 79 995.1
20260504175537 60 150 4.3 6.1 0.00 0.00 0.00 80 995.2
20260504175034 61 162 1.7 1.7 0.00 0.00 0.00 78 995.2
20260504174532 60 177 0.9 1.7 0.00 0.00 0.00 80 995.2
20260504174028 61 166 3.5 4.3 0.00 0.00 0.00 79 995.4
20260504173525 60 151 5.2 6.1 0.00 0.00 0.00 80 995.2
20260504173022 60 130 2.6 2.6 0.00 0.00 0.00 80 995.2
20260504172519 60 145 4.3 5.2 0.00 0.00 0.00 78 995.1
20260504172015 59 192 3.5 6.1 0.00 0.00 0.00 83 995.4
20260504171512 59 237 1.7 1.7 0.00 0.00 0.00 83 995.3
20260504171009 59 191 2.6 4.3 0.00 0.00 0.00 82 995.2
20260504170505 59 198 5.2 6.1 0.00 0.00 0.00 81 995.2
20260504160425 59 227 2.6 4.3 0.00 0.00 0.00 82 994.9
20260504150849 57 147 4.3 6.1 0.00 0.00 0.00 85 994.5
20260504150345 57 191 3.5 4.3 0.00 0.00 0.00 84 994.4